Showing default

TIANQI-6, 46810

Orbit data source: Space-Track

TIANQI-6, 46810 is a payload satellite owned by Guodian Gaokeji (CN) in LEO that was launched on Mon, 26 Oct 2020 UTC via a CHANG ZHENG 2C launch vehicle from the Xichang Space Center, China (XSC). Payload-class satellites include a variety of spacecraft equipped with specific instruments for various scientific and technological missions. These include communications satellites like Starlink; space stations such as the ISS; scientific satellites like the Hubble; Earth observation satellites from companies like Planet Labs, Umbra, and HawkEye 360; GPS; miniature CubeSats for education and research; and military/defense satellites.

Loading next visibility...
Identifier
46810, 2020-076D
Orbit
LEO
Country
Flag of CNCN / PRC
Related business
Manufacturer
Shanghai ASES
Mission
Operational Commercial Communications
Bus & Motor
STARLIGHTB, Unknown motor
Mass
40 kg wet, ~40 kg dry
Launch date (UTC)
2020-10-26 (5 years ago)
Launch vehicle
CHANG ZHENG 2C
Launch site
Xichang Space Center, China (XSC)
Object type
Payload
Rocket body
Debris
Shape & HBR
Box, 0.3 m
Radar Cross Section
0.195 m², Medium (>0.1 m² and < 1m²)

Expand to show TLE details & history
Last TLE update: 17 hours ago

TLE from 17 hours ago
0 TIANQI-6
1 46810U 20076D   26035.94279040  .00006830  00000-0  45916-3 0  9990
2 46810  34.9990 139.4669 0010010  85.6485 274.5368 15.06073339288629
Epoch: 2026-02-04T22:37Z
TLE epoch observation values (Epoch: 2026-02-04T22:37:37.090Z)
Latitude
-0.00001°
Longitude
24.96021°
Altitude
546.587 km
Speed
7.591 km/s
True Right ascension
09h 17m 52s
True Declination
0° 00' 00"
Sunlit
Object was in full shadow at epoch
Visualization orbit readout
Latitude
Unknown
Longitude
Unknown
Altitude
Unknown
Speed
Unknown
Apparent Right ascension
Unknown
Apparent Declination
Unknown
Sunlit
N/A
Visualization observer readout
Local Sidereal Time
17:45:49
Azimuth
Unknown
Elevation
Unknown
Doppler factor
Unknown
Orbital elements
Apogee altitude
558.376 km
Perigee altitude
544.503 km
Semi-major axis
6,929.576 km
Eccentricity
0.001
Inclination
34.999°
RAAN
139.4669°
Arg. of periapsis
85.6485°
True anomaly
274.42244°
Mean anomaly
274.5368°
Eccentric anomaly
274.47962°
Mean motion
3.76256 °/min
Orbital period
95.68 mins
BSTAR
0.00045916
Loading maneuver chart data...
Computing Atmospheric mass density...
Loading historical data...
Loading historical data...
Loading historical data...
Loading historical data...
Loading historical data...
Loading historical data...
Loading historical data...
Other satellites on launch #76 in the year 2020 (2020-10-26 UTC)

Documentation

Showing up to 5 results
|